Starlink 2504

operational
NORAD ID: 48328 Int'l Des: 2021-036 Owner: SPXS Country: US Constellation: starlink
LEOCIRCULARSTARLINK_TYPE

Starlink 2504について

説明を読み込み中...

リアルタイム位置

3D地球を読み込み中...

次回通過

高度履歴

Altitude vs Time

uPlot chart will show altitude changes over time

軌道要素

1 48328U 21036BE 25306.43545811 .00002813 00000-0 20766-3 0 9992
2 48328 53.0536 312.8842 0001463 86.7731 273.3425 15.06405280248857
Epoch: Nov 2, 2025 • Age: 43 hours

現在のステータス

高度 552.4 km
速度 7.59 km/s
衛星直下点 51.81°N, 113.89°W
打ち上げ日 Apr 29, 2021
運用期間 4.5 years
タイプ internet

技術仕様

分類 Payload
質量 260.00 kg
乾燥質量 248.00 kg
総質量 260.00 kg
長さ 0.20 m
直径 2.80 m
スパン 9.00 m
形状 Box + pan
製造者 SPXS
バスタイプ Starlink
フェーズステータス In Orbit
所有者/国 SPXS/US

大規模コンステレーション

Loading constellations...